This is the latest recevied weather packets stored in our database for station/object K4FDS. If no packets are shown the sender has not sent any weather packets the latest 10 day(s).
| Time | Temp. | Humidity | Pressure | Rain* | Wind** | Luminosity | Snow |
|---|---|---|---|---|---|---|---|
| 1777569560 | 18.89° C | 44% | 1006.1 hPa | 0 mm | 1.34 m/s, 281° | - | - |
| 1777567760 | 18.33° C | 48% | 1006.2 hPa | 0 mm | 0.89 m/s, 3° | - | - |
| 1777565960 | 17.78° C | 47% | 1006.5 hPa | 0 mm | 0.89 m/s, 300° | - | - |
| 1777564160 | 17.78° C | 51% | 1006.6 hPa | 0 mm | 0.89 m/s, 329° | - | - |
| 1777562360 | 17.22° C | 55% | 1006.8 hPa | 0 mm | 0.89 m/s, 319° | - | - |
| 1777560560 | 15.56° C | 62% | 1007.4 hPa | 0 mm | 0.45 m/s, 308° | - | - |
| 1777558760 | 15.56° C | 62% | 1007.4 hPa | 0 mm | 0.89 m/s, 282° | - | - |
| 1777556960 | 15° C | 69% | 1007.1 hPa | 0 mm | 0.45 m/s, 5° | - | - |
| 1777555160 | 13.33° C | 72% | 1007.7 hPa | 0 mm | 0 m/s | - | - |
| 1777553360 | 13.33° C | 76% | 1007.7 hPa | 0 mm | 0 m/s | - | - |
| 1777551560 | 13.33° C | 75% | 1007.6 hPa | 0 mm | 0.45 m/s, 336° | - | - |
| 1777549760 | 12.78° C | 79% | 1007 hPa | 0 mm | 0.45 m/s, 320° | - | - |
| 1777547960 | 12.78° C | 77% | 1006.3 hPa | 0 mm | 0.45 m/s, 352° | - | - |
| 1777546160 | 12.78° C | 80% | 1005.7 hPa | 0 mm | 0 m/s | - | - |
| 1777544360 | 13.33° C | 75% | 1005.4 hPa | 0 mm | 0 m/s | - | - |
| 1777542560 | 12.22° C | 80% | 1005 hPa | 0 mm | 0 m/s | - | - |
| 1777540760 | 12.22° C | 86% | 1005.1 hPa | 0 mm | 0 m/s | - | - |
| 1777538960 | 11.67° C | 89% | 1005.8 hPa | 0 mm | 0 m/s | - | - |
| 1777537160 | 11.67° C | 92% | 1006.3 hPa | 0 mm | 0 m/s | - | - |
| 1777535360 | 11.67° C | 87% | 1005.8 hPa | 0 mm | 0 m/s | - | - |
| 1777533560 | 12.22° C | 85% | 1005.9 hPa | 0 mm | 0 m/s | - | - |
| 1777531760 | 12.22° C | 85% | 1006.6 hPa | 0 mm | 0 m/s | - | - |
| 1777529960 | 12.78° C | 84% | 1006.6 hPa | 0 mm | 0 m/s | - | - |
| 1777528160 | 13.33° C | 83% | 1006.6 hPa | 0 mm | 0 m/s | - | - |
| 1777526360 | 13.33° C | 79% | 1006.8 hPa | 0 mm | 0 m/s | - | - |
* Rain latest hour (hover to see other rain measurements)
** Current wind speed in m/s (hover to see current wind gust speed)